Location: Chandrammap?lem
(16.9200°N, 81.0051°E)
Time: 13:44:56
(UTC+00:00)

BlueWalker 3 - Pass Details

Date: 29 May 2024
Orbit: 480 x 494 km, 53.2° (Epoch: 18 June)

Event Time Altitude Azimuth Distance (km) Brightness Sun altitude
Exits shadow 22:20:42 18° 330° (NNW) 1,249 3.9 -22.2°
Drops below altitude 10° 22:22:31 10° 357° (N) 1,645 4.9 -21.9°
Sets 22:25:08 0° 16° (NNE) 2,525 6.2 -21.3°
